Location: *
(33.3200°N, 8.3381°W)
Time: 19:49:11
(UTC+00:00)

USA 234 - Pass Details

Date: 09 April 2020
Orbit: 1102 x 1106 km, 123.0° (Epoch: 14 May)

Event Time Altitude Azimuth Distance (km) Brightness Sun altitude
Rises 21:39:40 0° 38° (NE) 3,922 6.2 -31.4°
Reaches altitude 10° 21:42:10 10° 35° (NE) 2,962 5.5 -31.8°
Maximum altitude 21:48:34 60° 318° (NW) 1,245 3.6 -32.9°
Drops below altitude 10° 21:54:58 10° 240° (WSW) 2,955 5.7 -33.9°
Sets 21:57:28 0° 236° (WSW) 3,911 6.3 -34.3°
